Helena, MT

10:35 AM MDT on May 29, 2017 (GMT -0600)
Helena Regional

Weather History for KHLN - June, 2014

Change the Weather History Date:

Thursday, June 5, 2014

  Actual Average Record
Temperature  
Mean Temperature 60 °F 59 °F  
Max Temperature 73 °F 72 °F 90 °F (2004)
Min Temperature 46 °F 46 °F 33 °F (1960)
Degree Days  
Heating Degree Days 5 7  
Month to date heating degree days 16 35  
Since 1 June heating degree days 16 35  
Since 1 July heating degree days 7339 7440  
Cooling Degree Days 0 1  
Month to date cooling degree days 1 5  
Year to date cooling degree days 5 13  
Since 1 June cooling degree days 1 5  
Growing Degree Days 10 (Base 50)    
Moisture  
Dew Point 37 °F    
Average Humidity 44    
Maximum Humidity 66    
Minimum Humidity 22    
Precipitation  
Precipitation 0.00 in 0.08 in 1.94 in (1908)
Month to date precipitation T 0.42  
Year to date precipitation 4.48 4.52  
Snow  
Snow 0.00 in 0.00 in 0.40 in (1951)
Month to date snowfall 0.0 0.0  
Since 1 June snowfall 0.0 0.0  
Since 1 July snowfall 41.8 38.1  
Snow Depth 0.00 in    
Sea Level Pressure  
Sea Level Pressure 29.96 in    
Wind  
Wind Speed 10 mph (NNW)    
Max Wind Speed 23 mph    
Max Gust Speed 28 mph    
Visibility 10 miles    
Events      
T = Trace of Precipitation, MM = Missing Value Source: NWS Daily Summary

Daily Weather History Graph

Daily Weather History Graph

Search for Another Location

Airport or City:

Trip Planner

Search our weather history database for the weather conditions in past years. The results will help you decide how hot, cold, wet, or windy it might be!

Date:

Astronomy

Jun. 05, 2014 Rise Set
Actual Time 5:36 AM MDT 9:17 PM MDT
Civil Twilight 4:57 AM MDT 9:55 PM MDT
Nautical Twilight 4:06 AM MDT 10:47 PM MDT
Astronomical Twilight 2:54 AM MDT 11:59 PM MDT
Moon 1:16 PM MDT (6/5) 1:27 AM MDT (6/5)
Length of Visible Light 16h 58m
Length of Day
15h 40m
Waxing Crescent, 49% of the Moon is Illuminated
Jun 5
Waxing Crescent
Jun 5
First Quarter
Jun 12
Full
Jun 19
Last Quarter
Jun 27
New

Hourly Weather History & Observations

Time (MDT) Temp. Dew Point Humidity Pressure Visibility Wind Dir Wind Speed Gust Speed Precip Events Conditions
12:53 AM 57.0 °F 34.0 °F 42% 29.91 in 10.0 mi ESE 3.5 mph - N/A   Clear
1:53 AM 57.9 °F 35.1 °F 42% 29.90 in 10.0 mi ESE 3.5 mph - N/A   Clear
2:53 AM 55.9 °F 34.0 °F 44% 29.90 in 10.0 mi Calm Calm - N/A   Clear
3:53 AM 54.0 °F 36.0 °F 51% 29.91 in 10.0 mi Calm Calm - N/A   Clear
4:53 AM 52.0 °F 36.0 °F 54% 29.91 in 10.0 mi Calm Calm - N/A   Clear
5:53 AM 46.9 °F 35.1 °F 63% 29.93 in 10.0 mi NNE 3.5 mph - N/A   Clear
6:53 AM 51.1 °F 34.0 °F 52% 29.93 in 10.0 mi Calm Calm - N/A   Clear
7:53 AM 55.9 °F 36.0 °F 47% 29.94 in 10.0 mi Calm Calm - N/A   Clear
8:53 AM 61.0 °F 36.0 °F 39% 29.93 in 10.0 mi Calm Calm - N/A   Clear
9:53 AM 68.0 °F 34.0 °F 28% 29.91 in 10.0 mi Variable 3.5 mph - N/A   Clear
10:53 AM 72.0 °F 30.0 °F 21% 29.88 in 10.0 mi North 9.2 mph 23.0 mph N/A   Clear
11:53 AM 71.1 °F 39.0 °F 31% 29.91 in 10.0 mi North 17.3 mph - N/A   Partly Cloudy
12:53 PM 69.1 °F 39.9 °F 35% 29.92 in 10.0 mi North 16.1 mph 25.3 mph N/A   Scattered Clouds
1:53 PM 64.9 °F 39.0 °F 39% 29.93 in 10.0 mi North 18.4 mph 26.5 mph N/A   Partly Cloudy
2:53 PM 66.0 °F 39.9 °F 38% 29.95 in 10.0 mi North 18.4 mph 25.3 mph N/A   Clear
3:53 PM 64.9 °F 39.9 °F 40% 29.96 in 10.0 mi North 15.0 mph - N/A   Clear
4:53 PM 64.0 °F 39.0 °F 40% 29.98 in 10.0 mi North 18.4 mph - N/A   Clear
5:53 PM 61.0 °F 39.0 °F 44% 30.00 in 10.0 mi North 20.7 mph - N/A   Clear
6:53 PM 57.9 °F 39.0 °F 49% 30.01 in 10.0 mi North 17.3 mph - N/A   Clear
7:53 PM 55.9 °F 37.9 °F 51% 30.04 in 10.0 mi NNW 16.1 mph 20.7 mph N/A   Clear
8:53 PM 52.0 °F 37.9 °F 59% 30.06 in 10.0 mi NW 10.4 mph - N/A   Clear
9:53 PM 50.0 °F 37.0 °F 61% 30.07 in 10.0 mi West 11.5 mph - N/A   Clear
10:53 PM 48.9 °F 37.0 °F 64% 30.08 in 10.0 mi West 11.5 mph - N/A   Clear
11:53 PM 48.9 °F 37.0 °F 64% 30.09 in 10.0 mi WSW 9.2 mph - N/A   Clear